Showing default

KUIPER-00193, 68576

Orbit data source: Space-Track

KUIPER-00193, 68576 is a payload satellite owned by Kuiper Systems (US) in LEO that was launched on Sat, 04 Apr 2026 UTC via an ATLAS V 551 launch vehicle from the Air Force Eastern Test Range (AFETR). Payload-class satellites include a variety of spacecraft equipped with specific instruments for various scientific and technological missions. These include communications satellites like Starlink; space stations such as the ISS; scientific satellites like the Hubble; Earth observation satellites from companies like Planet Labs, Umbra, and HawkEye 360; GPS; miniature CubeSats for education and research; and military/defense satellites.

Loading next visibility...
Identifier
68576, 2026-072D
Orbit
LEO
Country
Flag of USUS
Related business
Manufacturer
Kuiper Systems
Mission
Operational spacecraft
Bus & Motor
KUIPER, Unknown motor
Mass
~490 kg wet, ~490 kg dry
Launch date (UTC)
2026-04-04 (1 month ago)
Launch vehicle
ATLAS V 551
Launch site
Air Force Eastern Test Range (AFETR)
Object type
Payload
Rocket body
Debris
Shape & HBR
Unknown shape, 3.4 m
Radar Cross Section
RCS unknown

Expand to show TLE details & history
Last TLE update: 4 hours ago

TLE from 4 hours ago
0 KUIPER-00193
1 68576U 26072D   26138.83335647  .00024884  00000-0  71121-3 0  9999
2 68576  51.8776 318.7483 0003483 246.9478 211.8014 15.35837390  4151
Epoch: 2026-05-18T20:00Z
TLE epoch observation values (Epoch: 2026-05-18T20:00:01.999Z)
Latitude
51.1934°
Longitude
-113.79515°
Altitude
466.41 km
Speed
7.638 km/s
True Right ascension
04h 10m 54s
True Declination
51° 01' 05"
Sunlit
Object was in daylight at epoch
Visualization orbit readout
Latitude
Unknown
Longitude
Unknown
Altitude
Unknown
Speed
Unknown
Apparent Right ascension
Unknown
Apparent Declination
Unknown
Sunlit
N/A
Visualization observer readout
Local Sidereal Time
09:13:03
Azimuth
Unknown
Elevation
Unknown
Doppler factor
Unknown
Orbital elements
Apogee altitude
461.282 km
Perigee altitude
456.519 km
Semi-major axis
6,837.037 km
Eccentricity
0.00035
Inclination
51.8776°
RAAN
318.7483°
Arg. of periapsis
246.9478°
True anomaly
211.78037°
Mean anomaly
211.8014°
Eccentric anomaly
211.79089°
Mean motion
3.8392 °/min
Orbital period
93.77 mins
BSTAR
0.00071121
Loading maneuver chart data...
Computing Atmospheric mass density...
Loading historical data...
Loading historical data...
Loading historical data...
Loading historical data...
Loading historical data...
Loading historical data...
Loading historical data...

Documentation

Showing up to 5 results
|